User: anonymous   Login
Location: TAAA CAC
(31.8680°N, 109.5150°W)
Time: 12:06:04
(UTC-07:00)
Language:

Envisat - Orbit

View from above orbital plane
View from above orbital plane
View from above satellite
View from above satellite

Ground track
Ground track

The orbit data is extracted from the following two-line orbital elements,

1 27386U 02009A   24113.46014590  .00000618  00000-0  21572-3 0  9992
2 27386  98.2779  76.5014 0001216  84.6219  25.2772 14.38548081160568
Epoch (UTC): 22 April 2024 11:02:36
Eccentricity: 0.0001216
inclination: 98.2779°
perigee height: 762 km
apogee height: 764 km
right ascension of ascending node: 76.5014°
argument of perigee: 84.6219°
revolutions per day: 14.38548081
mean anomaly at epoch: 25.2772°
orbit number at epoch: 16056

The dashed part of the orbit path shows where the satellite is in the earth's shadow,  

DLR